This is the latest recevied weather packets stored in our database for station/object W6SNO-1. If no packets are shown the sender has not sent any weather packets the latest 10 day(s).
| Time | Temp. | Humidity | Pressure | Rain* | Wind** | Luminosity | Snow |
|---|---|---|---|---|---|---|---|
| 1787669934 | 16.11° C | 87% | 1018 hPa | 0 mm | - | 77 W/m² | - |
| 1787669629 | 16.11° C | 88% | 1018 hPa | 0 mm | - | 51 W/m² | - |
| 1787669329 | 16.11° C | 88% | 1017.9 hPa | 0 mm | - | 31 W/m² | - |
| 1787669025 | 16.11° C | 89% | 1018 hPa | 0 mm | - | 25 W/m² | - |
| 1787668721 | 16.11° C | 89% | 1018 hPa | 0 mm | - | 24 W/m² | - |
| 1787668417 | 16.11° C | 88% | 1017.8 hPa | 0 mm | - | 19 W/m² | - |
| 1787668112 | 16.11° C | 89% | 1017.9 hPa | 0 mm | - | 16 W/m² | - |
| 1787667807 | 16.11° C | 89% | 1017.7 hPa | 0 mm | - | 15 W/m² | - |
| 1787667503 | 16.11° C | 89% | 1017.8 hPa | 0 mm | - | 13 W/m² | - |
| 1787667199 | 16.11° C | 89% | 1017.7 hPa | 0 mm | - | 12 W/m² | - |
| 1787666893 | 16.11° C | 89% | 1017.5 hPa | 0 mm | - | 11 W/m² | - |
| 1787666589 | 16.11° C | 89% | 1017.5 hPa | 0 mm | - | 8 W/m² | - |
| 1787666288 | 16.11° C | 89% | 1017.5 hPa | 0 mm | - | 7 W/m² | - |
| 1787665984 | 16.11° C | 89% | 1017.4 hPa | 0 mm | - | 5 W/m² | - |
| 1787665679 | 16.11° C | 90% | 1017.5 hPa | 0 mm | - | 4 W/m² | - |
| 1787665380 | 15.56° C | 90% | 1017.7 hPa | 0 mm | - | 3 W/m² | - |
| 1787665075 | 15.56° C | 90% | 1017.3 hPa | 0 mm | - | 2 W/m² | - |
| 1787664772 | 15.56° C | 90% | 1017.3 hPa | 0 mm | - | 1 W/m² | - |
| 1787664471 | 15.56° C | 89% | 1017.2 hPa | 0 mm | - | 1 W/m² | - |
| 1787664167 | 15.56° C | 90% | 1017.3 hPa | 0 mm | - | 0 W/m² | - |
| 1787663866 | 15.56° C | 90% | 1017.4 hPa | 0 mm | - | 0 W/m² | - |
| 1787663573 | 16.11° C | 89% | 1017.1 hPa | 0 mm | - | 0 W/m² | - |
| 1787663257 | 15.56° C | 89% | 1017.2 hPa | 0 mm | - | 0 W/m² | - |
| 1787662953 | 16.11° C | 89% | 1017.1 hPa | 0 mm | - | 0 W/m² | - |
| 1787662647 | 16.11° C | 89% | 1017.1 hPa | 0 mm | - | 0 W/m² | - |
* Rain latest hour (hover to see other rain measurements)
** Current wind speed in m/s (hover to see current wind gust speed)